Weather in Sovetskoye

Russia / Belgorod Oblast     50°20′06″N   39°00′52″E
temp.,
°C
wind,
m/s
gust,
m/s
humid.,
%
clouds,
%
prec.,
mm/h
press.,
hPa
HPBL,
m
12 may, wed
wed1200:00+8ese81585100 0.3 10211127
03:00+7ene51090100 0.6 1021512
06:00+8e81583100 0.0 1021812
09:00+10e71381100 1.3 10201374
12:00+13ese9136894 0.4 10181606
15:00+14se697078 2.1 10171430
18:00+13sse597672 1.2 10161042
21:00+9se2287100 1.3 101735
13 may, thu
thu1300:00+9ene2393100 0.2 101653
03:00+9ese229562 0.3 101638
06:00+10e27935 0.3 1016230
09:00+16sse47695 0.3 1015618
12:00+20s46588 0.0 10151398
15:00+21ssw475768 0.4 10141652
18:00+20sse136685 0.1 1015295
21:00+15e227692 0.1 101513
14 may, fri
fri1400:00+15e2277100 0.0 101518
03:00+14ese34875 0.0 101550
06:00+14ese388873 0.0 1015171
09:00+21se6117068 0.0 1014619
12:00+25sse795483 0.0 10131183
15:00+26sse5751100 0.0 10131519
18:00+25se2466100 0.0 1012137
21:00+19se338512 0.0 101237
15 may, sat
sat1500:00+17se35885 0.0 101279
03:00+16sse3391100 0.0 101140
06:00+17s2591100 0.8 1011150
09:00+20s457999 1.4 1012437
12:00+24sw345835 0.0 10121324
15:00+25sw45485 0.0 10121882
18:00+24wsw356136 0.0 1012239
21:00+19nw3471100 0.1 101364
16 may, sun
sun1600:00+18n2272100 0.0 101426
03:00+16ne22782 0.0 101412
06:00+16ne23805 0.0 101469
09:00+21ne346382 0.0 1014493
12:00+24ene555787 0.0 10141151
15:00+26ne4555100 0.0 10121666
18:00+24e3667100 0.2 1012228
21:00+19e336959 0.2 101226